Daviess Cnty AP, Washington,, IN

8:31 AM EST on December 09, 2019 (GMT -0500)
Daviess County

Weather History for KDCY - October, 2019

Change the Weather History Date:

Tuesday, October 22, 2019

  Actual Average (WUND) Record (WUND)
Temperature  
Mean Temperature 54 °F -  
Max Temperature 60 °F - - (-1)
Min Temperature 47 °F - - (-1)
Degree Days  
Heating Degree Days 11    
Growing Degree Days 4 (Base 50)    
Moisture  
Dew Point 41 °F    
Average Humidity 62    
Maximum Humidity 75    
Minimum Humidity 47    
Precipitation  
Precipitation 0.00 in - - ()
Sea Level Pressure  
Sea Level Pressure 29.85 in    
Wind  
Wind Speed 11 mph (WSW)    
Max Wind Speed 21 mph    
Max Gust Speed 28 mph    
Visibility 10 miles    
Events      
Averages and records for this station are not official NWS values.
T = Trace of Precipitation, MM = Missing Value Source: NWS Daily Summary

Daily Weather History Graph

Daily Weather History Graph

Search for Another Location

Airport or City:

Astronomy

Oct. 22, 2019 Rise Set
Actual Time 8:04 AM EDT 7:00 PM EDT
Civil Twilight 7:37 AM EDT 7:27 PM EDT
Nautical Twilight 7:06 AM EDT 7:58 PM EDT
Astronomical Twilight 6:35 AM EDT 8:29 PM EDT
Moon 1:19 AM EDT (10/22) 4:04 PM EDT (10/22)
Length of Visible Light 11h 50m
Length of Day
10h 56m
Last Quarter, 37% of the Moon is Illuminated
Oct 22
Last Quarter
Oct 27
New
Nov 4
First Quarter
Nov 12
Full
Nov 19
Last Quarter

Hourly Weather History & Observations

Time (EDT) Temp. Dew Point Humidity Pressure Visibility Wind Dir Wind Speed Gust Speed Precip Events Conditions
12:15 AM 59.5 °F 47.5 °F 64% 29.80 in 10.0 mi West 10.4 mph 19.6 mph N/A   Overcast
12:35 AM 57.2 °F 48.0 °F 71% 29.80 in 10.0 mi West 9.2 mph - N/A   Mostly Cloudy
12:55 AM 56.8 °F 46.4 °F 68% 29.80 in 10.0 mi SW 6.9 mph - N/A   Mostly Cloudy
1:15 AM 55.2 °F 46.8 °F 73% 29.80 in 10.0 mi SSW 6.9 mph - N/A   Scattered Clouds
1:35 AM 54.9 °F 46.8 °F 74% 29.79 in 10.0 mi SSW 6.9 mph - N/A   Clear
1:55 AM 54.7 °F 46.6 °F 74% 29.78 in 10.0 mi SSW 8.1 mph - N/A   Clear
2:15 AM 54.1 °F 46.4 °F 75% 29.77 in 10.0 mi SSW 8.1 mph - N/A   Clear
2:35 AM 53.8 °F 46.0 °F 75% 29.77 in 10.0 mi SSW 8.1 mph - N/A   Clear
2:55 AM 54.5 °F 44.6 °F 69% 29.77 in 10.0 mi SW 10.4 mph - N/A   Clear
3:15 AM 55.2 °F 43.3 °F 64% 29.77 in 10.0 mi SW 11.5 mph - N/A   Clear
3:35 AM 54.5 °F 43.2 °F 66% 29.77 in 10.0 mi SSW 11.5 mph - N/A   Clear
3:55 AM 54.1 °F 43.3 °F 67% 29.76 in 10.0 mi SSW 10.4 mph - N/A   Clear
4:15 AM 53.2 °F 43.7 °F 70% 29.76 in 10.0 mi SSW 10.4 mph - N/A   Clear
4:35 AM 52.7 °F 43.7 °F 71% 29.76 in 10.0 mi SSW 9.2 mph - N/A   Clear
4:55 AM 52.7 °F 43.2 °F 70% 29.77 in 10.0 mi SW 10.4 mph - N/A   Clear
5:15 AM 52.2 °F 42.8 °F 70% 29.77 in 10.0 mi SW 10.4 mph - N/A   Clear
5:35 AM 51.8 °F 42.3 °F 70% 29.77 in 10.0 mi SW 10.4 mph - N/A   Clear
5:55 AM 51.3 °F 41.5 °F 69% 29.78 in 10.0 mi WSW 12.7 mph - N/A   Clear
6:15 AM 50.9 °F 40.8 °F 68% 29.78 in 10.0 mi WSW 11.5 mph - N/A   Clear
6:35 AM 50.5 °F 40.3 °F 68% 29.79 in 10.0 mi WSW 11.5 mph - N/A   Clear
6:55 AM 50.4 °F 39.6 °F 66% 29.79 in 10.0 mi WSW 11.5 mph - N/A   Clear
7:15 AM 50.0 °F 39.6 °F 67% 29.80 in 10.0 mi WSW 9.2 mph - N/A   Clear
7:35 AM 48.9 °F 40.1 °F 72% 29.81 in 10.0 mi WSW 6.9 mph - N/A   Clear
8:15 AM 48.7 °F 39.7 °F 71% 29.82 in 10.0 mi WSW 10.4 mph - N/A   Clear
8:40 AM 49.6 °F 39.6 °F 68% 29.83 in 10.0 mi WSW 9.2 mph - N/A   Clear
8:55 AM 50.0 °F 40.1 °F 69% 29.84 in 10.0 mi SW 9.2 mph - N/A   Clear
9:10 AM 50.9 °F 40.6 °F 68% 29.85 in 10.0 mi SW 10.4 mph - N/A   Scattered Clouds
9:35 AM 51.8 °F 40.8 °F 66% 29.85 in 10.0 mi SW 10.4 mph - N/A   Clear
9:55 AM 52.0 °F 41.2 °F 67% 29.85 in 10.0 mi SW 12.7 mph 19.6 mph N/A   Mostly Cloudy
10:15 AM 51.8 °F 41.4 °F 68% 29.85 in 10.0 mi WSW 10.4 mph 17.3 mph N/A   Overcast
10:35 AM 52.7 °F 40.3 °F 63% 29.85 in 10.0 mi WSW 15.0 mph 24.2 mph N/A   Mostly Cloudy
10:55 AM 54.0 °F 40.8 °F 61% 29.86 in 10.0 mi WSW 13.8 mph 19.6 mph N/A   Scattered Clouds
11:10 AM 54.5 °F 40.6 °F 60% 29.85 in 10.0 mi WSW 13.8 mph 20.7 mph N/A   Clear
11:35 AM 55.8 °F 41.2 °F 58% 29.86 in 10.0 mi WSW 16.1 mph 24.2 mph N/A   Scattered Clouds
11:55 AM 55.9 °F 41.2 °F 58% 29.86 in 10.0 mi WSW 19.6 mph 26.5 mph N/A   Scattered Clouds
12:15 PM 56.5 °F 42.1 °F 59% 29.87 in 10.0 mi WSW 13.8 mph 23.0 mph N/A   Scattered Clouds
12:35 PM 57.2 °F 41.9 °F 57% 29.88 in 10.0 mi SW 17.3 mph 27.6 mph N/A   Scattered Clouds
12:55 PM 58.1 °F 42.6 °F 56% 29.87 in 10.0 mi SW 15.0 mph 21.9 mph N/A   Mostly Cloudy
1:15 PM 57.7 °F 42.3 °F 56% 29.87 in 10.0 mi WSW 17.3 mph 21.9 mph N/A   Mostly Cloudy
1:35 PM 58.1 °F 42.3 °F 56% 29.87 in 10.0 mi WSW 17.3 mph 26.5 mph N/A   Mostly Cloudy
1:55 PM 57.9 °F 42.3 °F 56% 29.86 in 10.0 mi WSW 11.5 mph 20.7 mph N/A   Mostly Cloudy
2:15 PM 59.4 °F 41.5 °F 52% 29.86 in 10.0 mi WSW 19.6 mph 27.6 mph N/A   Overcast
2:35 PM 57.7 °F 41.4 °F 54% 29.86 in 10.0 mi WSW 20.7 mph - N/A   Overcast
2:55 PM 58.8 °F 42.1 °F 54% 29.85 in 10.0 mi WSW 13.8 mph 25.3 mph N/A   Mostly Cloudy
3:15 PM 59.9 °F 41.7 °F 51% 29.85 in 10.0 mi WSW 17.3 mph 21.9 mph N/A   Mostly Cloudy
3:35 PM 60.1 °F 41.7 °F 51% 29.86 in 10.0 mi SW 18.4 mph 23.0 mph N/A   Scattered Clouds
3:55 PM 60.1 °F 40.5 °F 48% 29.86 in 10.0 mi WSW 16.1 mph 24.2 mph N/A   Scattered Clouds
4:15 PM 59.9 °F 41.0 °F 50% 29.86 in 10.0 mi WSW 13.8 mph - N/A   Scattered Clouds
4:35 PM 59.5 °F 39.9 °F 48% 29.87 in 10.0 mi WSW 16.1 mph 24.2 mph N/A   Scattered Clouds
4:55 PM 60.1 °F 39.9 °F 47% 29.88 in 10.0 mi West 17.3 mph 20.7 mph N/A   Scattered Clouds
5:35 PM 59.5 °F 39.6 °F 48% 29.88 in 10.0 mi WSW 15.0 mph 23.0 mph N/A   Scattered Clouds
5:55 PM 59.0 °F 39.0 °F 48% 29.88 in 10.0 mi West 15.0 mph - N/A   Scattered Clouds
6:15 PM 58.3 °F 39.6 °F 50% 29.89 in 10.0 mi WSW 11.5 mph - N/A   Clear
6:35 PM 57.4 °F 38.8 °F 50% 29.89 in 10.0 mi West 9.2 mph - N/A   Clear
6:55 PM 55.9 °F 38.8 °F 53% 29.90 in 10.0 mi WSW 9.2 mph - N/A   Scattered Clouds
7:15 PM 54.9 °F 39.0 °F 55% 29.91 in 10.0 mi WSW 6.9 mph - N/A   Scattered Clouds
7:35 PM 53.8 °F 39.2 °F 58% 29.92 in 10.0 mi WSW 8.1 mph - N/A   Scattered Clouds
7:55 PM 53.6 °F 38.7 °F 57% 29.92 in 10.0 mi WSW 8.1 mph - N/A   Scattered Clouds
8:15 PM 51.8 °F 39.4 °F 63% 29.93 in 10.0 mi WSW 4.6 mph - N/A   Clear
8:35 PM 51.3 °F 39.0 °F 63% 29.93 in 10.0 mi SW 4.6 mph - N/A   Clear
8:55 PM 49.1 °F 39.6 °F 70% 29.94 in 10.0 mi SW 5.8 mph - N/A   Clear
9:15 PM 50.2 °F 38.5 °F 64% 29.95 in 10.0 mi WSW 6.9 mph - N/A   Clear
9:35 PM 50.4 °F 37.6 °F 62% 29.95 in 10.0 mi WSW 6.9 mph - N/A   Clear
9:55 PM 50.0 °F 36.7 °F 60% 29.95 in 10.0 mi WSW 8.1 mph - N/A   Clear
10:15 PM 49.1 °F 36.0 °F 61% 29.96 in 10.0 mi West 6.9 mph - N/A   Clear
10:35 PM 48.7 °F 35.1 °F 59% 29.97 in 10.0 mi West 9.2 mph - N/A   Clear
10:55 PM 48.4 °F 34.2 °F 58% 29.97 in 10.0 mi West 11.5 mph - N/A   Clear
11:15 PM 48.4 °F 33.3 °F 56% 29.98 in 10.0 mi West 9.2 mph - N/A   Clear
11:35 PM 48.4 °F 32.4 °F 54% 29.99 in 10.0 mi West 9.2 mph - N/A   Clear
11:55 PM 47.7 °F 32.2 °F 55% 29.99 in 10.0 mi West 8.1 mph - N/A   Clear